Imperial, NE

7:25 PM MDT on September 25, 2016 (GMT -0600)
Imperial Municipal

Weather History for KIML - December, 2011

Change the Weather History Date:

Tuesday, December 27, 2011

  Actual Average Record
Temperature  
Mean Temperature 35 °F 27 °F  
Max Temperature 50 °F 40 °F 74 °F (1980)
Min Temperature 20 °F 15 °F -12 °F (1916)
Degree Days  
Heating Degree Days 30 38  
Month to date heating degree days 973 986  
Cooling Degree Days 0 0  
Month to date cooling degree days 0 0  
Year to date cooling degree days 1096 963  
Moisture  
Dew Point 17 °F    
Average Humidity 52    
Maximum Humidity 77    
Minimum Humidity 26    
Precipitation  
Precipitation 0.00 in 0.01 in 0.40 in (1927)
Sea Level Pressure  
Sea Level Pressure 30.11 in    
Wind  
Wind Speed 11 mph (West)    
Max Wind Speed 21 mph    
Max Gust Speed 28 mph    
Visibility 10 miles    
Events      
T = Trace of Precipitation, MM = Missing Value Source: NWS Daily Summary

Daily Weather History Graph

Daily Weather History Graph

Search for Another Location

Airport or City:

Trip Planner

Search our weather history database for the weather conditions in past years. The results will help you decide how hot, cold, wet, or windy it might be!

Date:

Astronomy

Dec. 27, 2011 Rise Set
Actual Time 7:08 AM MST 4:26 PM MST
Civil Twilight 6:37 AM MST 4:57 PM MST
Nautical Twilight 6:03 AM MST 5:31 PM MST
Astronomical Twilight 5:30 AM MST 6:04 PM MST
Moon 9:04 AM MST (12/27) 8:02 PM MST (12/27)
Length of Visible Light 10h 19m
Length of Day
9h 17m
Waxing Crescent, 11% of the Moon is Illuminated
Dec 27
Waxing Crescent
Dec 31
First Quarter
Jan 9
Full
Jan 16
Last Quarter
Jan 23
New

Hourly Weather History & Observations

Time (MST) Temp. Windchill Dew Point Humidity Pressure Visibility Wind Dir Wind Speed Gust Speed Precip Events Conditions
12:53 AM 28.0 °F 20.0 °F 17.1 °F 63% 30.19 in 10.0 mi NW 8.1 mph - N/A   Clear
1:53 AM 24.1 °F 14.4 °F 16.0 °F 71% 30.19 in 10.0 mi NNW 9.2 mph - N/A   Clear
2:53 AM 21.0 °F 8.6 °F 14.0 °F 74% 30.20 in 10.0 mi West 12.7 mph - N/A   Clear
3:53 AM 24.1 °F 12.5 °F 15.1 °F 69% 30.20 in 10.0 mi West 12.7 mph - N/A   Clear
4:53 AM 21.2 °F 10.9 °F 14.0 °F 74% 30.15 in 10.0 mi West 9.2 mph - N/A   Clear
5:53 AM 19.9 °F 7.9 °F 14.0 °F 78% 30.24 in 10.0 mi West 11.5 mph - N/A   Clear
6:53 AM 21.0 °F 11.4 °F 14.0 °F 74% 30.23 in 10.0 mi West 8.1 mph - N/A   Clear
7:53 AM 24.1 °F 15.2 °F 15.1 °F 69% 30.22 in 10.0 mi West 8.1 mph - N/A   Clear
8:53 AM 28.9 °F 21.9 °F 17.1 °F 61% 30.21 in 10.0 mi West 6.9 mph - N/A   Clear
9:53 AM 37.9 °F 32.7 °F 19.0 °F 47% 30.20 in 10.0 mi WSW 6.9 mph - N/A   Clear
10:53 AM 44.1 °F 39.0 °F 16.0 °F 32% 30.14 in 10.0 mi SW 9.2 mph - N/A   Clear
11:53 AM 46.9 °F - 14.0 °F 27% 30.08 in 10.0 mi SW 10.4 mph - N/A   Clear
12:53 PM 48.0 °F - 16.0 °F 28% 30.04 in 10.0 mi SSW 13.8 mph - N/A   Mostly Cloudy
1:53 PM 48.0 °F - 17.1 °F 29% 30.03 in 10.0 mi SSW 13.8 mph - N/A   Partly Cloudy
2:53 PM 48.9 °F - 19.9 °F 32% 30.02 in 10.0 mi South 13.8 mph - N/A   Clear
3:53 PM 46.4 °F 41.5 °F 19.4 °F 34% 29.96 in 10.0 mi South 10.4 mph - N/A   Clear
4:53 PM 39.9 °F 37.8 °F 19.9 °F 45% 30.04 in 10.0 mi SSW 3.5 mph - N/A   Clear
5:53 PM 34.0 °F 28.8 °F 19.9 °F 56% 30.06 in 10.0 mi SW 5.8 mph - N/A   Clear
6:53 PM 35.1 °F 28.6 °F 19.9 °F 54% 30.06 in 10.0 mi West 8.1 mph - N/A   Clear
7:53 PM 32.0 °F 24.2 °F 19.0 °F 59% 30.06 in 10.0 mi West 9.2 mph - N/A   Clear
8:53 PM 34.0 °F 25.5 °F 17.1 °F 50% 30.05 in 10.0 mi West 11.5 mph - N/A   Clear
9:53 PM 37.0 °F 27.4 °F 18.0 °F 46% 30.04 in 10.0 mi NW 17.3 mph 25.3 mph N/A   Clear
10:53 PM 37.9 °F 28.2 °F 19.0 °F 47% 30.04 in 10.0 mi NW 18.4 mph - N/A   Clear
11:53 PM 37.0 °F 28.5 °F 19.0 °F 48% 30.05 in 10.0 mi NW 13.8 mph 24.2 mph N/A   Clear